Location: Blanot
(47.1713°N, 4.2340°E)
Time: 04:39:44
(UTC+00:00)

Landsat 4 - Pass Details

Date: 14 July 2020
Orbit: 506 x 522 km, 98.2° (Epoch: 06 August)

Event Time Altitude Azimuth Distance (km) Brightness Sun altitude
Rises 00:04:26 0° 12° (NNE) 2,658 8.8 -21.1°
Reaches altitude 10° 00:06:32 10° 11° (N) 1,767 7.6 -21.1°
Maximum altitude 00:10:20 78° 286° (WNW) 540 3.7 -21.0°
Enters shadow 00:10:42 69° 231° (SW) 562 3.6 -21.0°
